| time (UTC) | temp C | wind direction | speed KPH | gust KPH | rain 1hr cm | rain 24hr cm | rain mn cm | humidity % | barometer mb |
| 20260902123300 | 20 | 151 | 1.6 | 3.2 | 0.00 | 0.00 | 0.00 | 96 | |
| 20260902122759 | 20 | 209 | 1.6 | 3.2 | 0.00 | 0.00 | 0.00 | 96 | |
| 20260902122255 | 20 | 241 | 0.0 | 1.6 | 0.00 | 0.00 | 0.00 | 96 | |
| 20260902121754 | 20 | 136 | 1.6 | 4.8 | 0.00 | 0.00 | 0.00 | 96 | |
| 20260902121250 | 20 | 199 | 1.6 | 1.6 | 0.00 | 0.00 | 0.00 | 96 | |
| 20260902120745 | 20 | 129 | 0.0 | 1.6 | 0.00 | 0.00 | 0.00 | 96 | |
| 20260902120242 | 20 | 169 | 0.0 | 3.2 | 0.00 | 0.00 | 0.00 | 96 | |
| 20260902115742 | 20 | 243 | 3.2 | 4.8 | 0.00 | 0.00 | 0.00 | 96 | |
| 20260902115238 | 20 | 162 | 3.2 | 4.8 | 0.00 | 0.00 | 0.00 | 96 | |
| 20260902114734 | 20 | 150 | 1.6 | 3.2 | 0.00 | 0.00 | 0.00 | 96 | |
| 20260902114230 | 20 | 237 | 0.0 | 6.4 | 0.00 | 0.00 | 0.00 | 96 | |
| 20260902113724 | 20 | 201 | 3.2 | 8.0 | 0.00 | 0.00 | 0.00 | 96 | |
| 20260902113219 | 20 | 217 | 0.0 | 4.8 | 0.00 | 0.00 | 0.00 | 96 | |
| 20260902112718 | 20 | 147 | 0.0 | 1.6 | 0.00 | 0.00 | 0.00 | 96 | |
| 20260902112216 | 20 | 149 | 0.0 | 3.2 | 0.00 | 0.00 | 0.00 | 96 | |
| 20260902111711 | 20 | 251 | 0.0 | 3.2 | 0.00 | 0.00 | 0.00 | 96 | |
| 20260902111207 | 20 | 213 | 0.0 | 4.8 | 0.00 | 0.00 | 0.00 | 96 | |
| 20260902110702 | 19 | 235 | 0.0 | 3.2 | 0.00 | 0.00 | 0.00 | 96 | |
| 20260902110158 | 19 | 274 | 1.6 | 3.2 | 0.00 | 0.00 | 0.00 | 96 | |
| 20260902105658 | 20 | 204 | 0.0 | 3.2 | 0.00 | 0.00 | 0.00 | 96 | |
| 20260902105153 | 19 | 197 | 0.0 | 1.6 | 0.00 | 0.00 | 0.00 | 96 | |
| 20260902104648 | 19 | 150 | 0.0 | 0.0 | 0.00 | 0.00 | 0.00 | 96 | |
| 20260902104144 | 19 | 224 | 0.0 | 0.0 | 0.00 | 0.00 | 0.00 | 96 | |
| 20260902103643 | 19 | 202 | 0.0 | 1.6 | 0.00 | 0.00 | 0.00 | 96 | |
| 20260902103138 | 19 | 142 | 0.0 | 3.2 | 0.00 | 0.00 | 0.00 | 96 | |
| 20260902102635 | 19 | 129 | 0.0 | 0.0 | 0.00 | 0.00 | 0.00 | 96 | |
| 20260902102132 | 19 | 119 | 0.0 | 3.2 | 0.00 | 0.00 | 0.00 | 96 | |
| 20260902101627 | 19 | 22 | 0.0 | 1.6 | 0.00 | 0.00 | 0.00 | 96 | |
| 20260902101126 | 19 | 186 | 0.0 | 1.6 | 0.00 | 0.00 | 0.00 | 96 | |
| 20260902100621 | 20 | 269 | 0.0 | 1.6 | 0.00 | 0.00 | 0.00 | 96 | |
| 20260902100116 | 20 | 229 | 0.0 | 4.8 | 0.00 | 0.00 | 0.00 | 96 | |
| 20260902095615 | 20 | 231 | 1.6 | 3.2 | 0.00 | 0.00 | 0.00 | 96 | |
| 20260902095114 | 20 | 312 | 0.0 | 1.6 | 0.00 | 0.00 | 0.00 | 96 | |
| 20260902094610 | 20 | 134 | 0.0 | 1.6 | 0.00 | 0.00 | 0.00 | 96 | |
| 20260902094106 | 20 | 113 | 0.0 | 0.0 | 0.00 | 0.00 | 0.00 | 96 | |
| 20260902093606 | 20 | 217 | 0.0 | 4.8 | 0.00 | 0.00 | 0.00 | 96 | |
| 20260902093100 | 20 | 129 | 0.0 | 0.0 | 0.00 | 0.00 | 0.00 | 96 | |
| 20260902092555 | 20 | 129 | 0.0 | 0.0 | 0.00 | 0.00 | 0.00 | 96 | |
| 20260902092050 | 20 | 129 | 0.0 | 0.0 | 0.00 | 0.00 | 0.00 | 96 | |
| 20260902091545 | 20 | 217 | 0.0 | 0.0 | 0.00 | 0.00 | 0.00 | 96 | |
| 20260902091041 | 20 | 217 | 0.0 | 1.6 | 0.00 | 0.00 | 0.00 | 96 | |
| 20260902090537 | 20 | 142 | 0.0 | 0.0 | 0.00 | 0.00 | 0.00 | 96 | |
| 20260902090036 | 20 | 142 | 0.0 | 0.0 | 0.00 | 0.00 | 0.00 | 96 | |
| 20260902085530 | 20 | 230 | 0.0 | 0.0 | 0.00 | 0.00 | 0.00 | 96 | |
| 20260902085026 | 20 | 230 | 0.0 | 0.0 | 0.00 | 0.00 | 0.00 | 96 | |
| 20260902084522 | 20 | 193 | 1.6 | 1.6 | 0.00 | 0.00 | 0.00 | 96 | |
| 20260902084017 | 20 | 240 | 0.0 | 3.2 | 0.00 | 0.00 | 0.00 | 96 | |
| 20260902083513 | 20 | 120 | 0.0 | 1.6 | 0.00 | 0.00 | 0.00 | 96 | |
| 20260902083007 | 20 | 246 | 0.0 | 3.2 | 0.00 | 0.00 | 0.00 | 96 | |
| 20260902082503 | 20 | 184 | 0.0 | 3.2 | 0.00 | 0.00 | 0.00 | 96 | |
| 20260902081959 | 20 | 89 | 0.0 | 3.2 | 0.00 | 0.00 | 0.00 | 96 | |
| 20260902081455 | 20 | 204 | 0.0 | 3.2 | 0.00 | 0.00 | 0.00 | 96 | |
| 20260902080949 | 20 | 112 | 1.6 | 1.6 | 0.00 | 0.00 | 0.00 | 96 | |
| 20260902080446 | 20 | 129 | 0.0 | 1.6 | 0.00 | 0.00 | 0.00 | 96 | |
| 20260902075945 | 20 | 229 | 0.0 | 1.6 | 0.00 | 0.00 | 0.00 | 96 | |
| 20260902075441 | 20 | 212 | 0.0 | 3.2 | 0.00 | 0.00 | 0.00 | 96 | |
| 20260902074937 | 20 | 129 | 0.0 | 1.6 | 0.00 | 0.00 | 0.00 | 96 | |
| 20260902074432 | 20 | 114 | 0.0 | 3.2 | 0.00 | 0.00 | 0.00 | 96 | |
| 20260902073927 | 20 | 142 | 0.0 | 0.0 | 0.00 | 0.00 | 0.00 | 96 | |
| 20260902073423 | 20 | 142 | 0.0 | 3.2 | 0.00 | 0.00 | 0.00 | 96 | |
| 20260902072919 | 20 | 174 | 0.0 | 3.2 | 0.00 | 0.00 | 0.00 | 96 | |
| 20260902072414 | 20 | 142 | 0.0 | 3.2 | 0.00 | 0.00 | 0.00 | 96 | |
| 20260902071911 | 20 | 140 | 0.0 | 3.2 | 0.00 | 0.00 | 0.00 | 96 | |
| 20260902071410 | 20 | 222 | 1.6 | 3.2 | 0.00 | 0.00 | 0.00 | 96 | |
| 20260902070907 | 20 | 225 | 0.0 | 3.2 | 0.00 | 0.00 | 0.00 | 96 | |
| 20260902070402 | 20 | 129 | 0.0 | 0.0 | 0.00 | 0.00 | 0.00 | 96 | |
| 20260902065901 | 20 | 129 | 0.0 | 0.0 | 0.00 | 0.00 | 0.00 | 96 | |
| 20260902065356 | 20 | 129 | 0.0 | 0.0 | 0.00 | 0.00 | 0.00 | 96 | |
| 20260902064851 | 20 | 202 | 0.0 | 0.0 | 0.00 | 0.00 | 0.00 | 96 | |
| 20260902064347 | 20 | 202 | 0.0 | 0.0 | 0.00 | 0.00 | 0.00 | 96 | |
| 20260902063843 | 20 | 217 | 0.0 | 1.6 | 0.00 | 0.00 | 0.00 | 96 | |
| 20260902063343 | 20 | 216 | 0.0 | 1.6 | 0.00 | 0.00 | 0.00 | 96 | |
| 20260902062842 | 20 | 142 | 0.0 | 0.0 | 0.00 | 0.00 | 0.00 | 96 | |
| 20260902062337 | 20 | 142 | 0.0 | 0.0 | 0.00 | 0.00 | 0.00 | 96 | |
| 20260902061836 | 20 | 124 | 0.0 | 1.6 | 0.00 | 0.00 | 0.00 | 96 | |
| 20260902061332 | 20 | 136 | 0.0 | 1.6 | 0.00 | 0.00 | 0.00 | 96 | |
| 20260902060828 | 20 | 161 | 0.0 | 3.2 | 0.00 | 0.00 | 0.00 | 96 | |
| 20260902060324 | 20 | 209 | 0.0 | 0.0 | 0.00 | 0.00 | 0.00 | 96 | |
| 20260902055819 | 20 | 180 | 0.0 | 0.0 | 0.00 | 0.00 | 0.00 | 96 | |
| 20260902055316 | 20 | 235 | 0.0 | 1.6 | 0.00 | 0.00 | 0.00 | 96 | |
| 20260902054816 | 20 | 249 | 0.0 | 1.6 | 0.00 | 0.00 | 0.00 | 96 | |
| 20260902054311 | 20 | 209 | 0.0 | 1.6 | 0.00 | 0.00 | 0.00 | 96 | |
| 20260902053806 | 20 | 173 | 0.0 | 3.2 | 0.00 | 0.00 | 0.00 | 96 | |
| 20260902053301 | 20 | 134 | 0.0 | 1.6 | 0.00 | 0.00 | 0.00 | 96 | |
| 20260902052800 | 20 | 129 | 0.0 | 0.0 | 0.00 | 0.00 | 0.00 | 96 | |
| 20260902052255 | 20 | 89 | 0.0 | 0.0 | 0.05 | 0.00 | 0.00 | 96 | |
| 20260902051750 | 20 | 129 | 0.0 | 1.6 | 0.00 | 0.00 | 0.00 | 96 | |
| 20260902051249 | 20 | 217 | 0.0 | 0.0 | 0.00 | 0.00 | 0.00 | 96 | |
| 20260902050744 | 20 | 217 | 0.0 | 0.0 | 0.00 | 0.00 | 0.00 | 96 | |
| 20260902050240 | 20 | 202 | 0.0 | 1.6 | 0.00 | 0.00 | 0.00 | 96 | |
| 20260902045739 | 20 | 242 | 3.2 | 3.2 | 0.00 | 0.00 | 0.00 | 96 | |
| 20260902045236 | 20 | 235 | 0.0 | 3.2 | 0.00 | 0.00 | 0.00 | 96 | |
| 20260902044731 | 20 | 140 | 0.0 | 4.8 | 0.00 | 0.00 | 0.00 | 96 | |
| 20260902044226 | 20 | 202 | 0.0 | 3.2 | 0.00 | 0.00 | 0.00 | 96 | |
| 20260902043721 | 20 | 219 | 0.0 | 3.2 | 0.00 | 0.00 | 0.00 | 96 | |
| 20260902043217 | 20 | 193 | 0.0 | 1.6 | 0.00 | 0.00 | 0.00 | 96 | |
| 20260902042716 | 20 | 163 | 0.0 | 1.6 | 0.00 | 0.00 | 0.00 | 96 | |
| 20260902042211 | 20 | 342 | 1.6 | 3.2 | 0.00 | 0.00 | 0.00 | 96 | |
| 20260902041706 | 20 | 229 | 0.0 | 3.2 | 0.00 | 0.00 | 0.00 | 96 | |
| 20260902041201 | 20 | 135 | 0.0 | 3.2 | 0.00 | 0.00 | 0.00 | 96 | |
| 20260902040700 | 20 | 326 | 0.0 | 1.6 | 0.00 | 0.00 | 0.00 | 96 | |
| 20260902040156 | 20 | 255 | 3.2 | 4.8 | 0.00 | 2.59 | 2.59 | 96 | |
| 20260902035654 | 20 | 142 | 0.0 | 1.6 | 0.00 | 2.59 | 2.59 | 96 | |
| 20260902035150 | 20 | 147 | 0.0 | 1.6 | 0.00 | 2.59 | 2.59 | 96 | |
| 20260902034649 | 20 | 160 | 0.0 | 1.6 | 0.00 | 2.59 | 2.59 | 96 | |
| 20260902034148 | 20 | 93 | 0.0 | 1.6 | 0.00 | 2.59 | 2.59 | 96 | |
| 20260902033647 | 20 | 114 | 0.0 | 3.2 | 0.00 | 2.59 | 2.59 | 96 | |
| 20260902033142 | 20 | 212 | 0.0 | 1.6 | 0.00 | 2.59 | 2.59 | 96 | |
| 20260902032641 | 20 | 141 | 0.0 | 1.6 | 0.00 | 2.59 | 2.59 | 96 | |
| 20260902032136 | 20 | 113 | 0.0 | 1.6 | 0.00 | 2.59 | 2.59 | 96 | |
| 20260902031630 | 20 | 89 | 0.0 | 1.6 | 0.00 | 2.59 | 2.59 | 96 | |
| 20260902031126 | 20 | 124 | 0.0 | 0.0 | 0.00 | 2.59 | 2.59 | 96 | |
| 20260902030621 | 20 | 124 | 0.0 | 1.6 | 0.00 | 2.59 | 2.59 | 96 | |
| 20260902030121 | 20 | 352 | 0.0 | 0.0 | 0.00 | 2.59 | 2.59 | 96 | |
| 20260902025621 | 20 | 352 | 0.0 | 0.0 | 0.00 | 2.59 | 2.59 | 96 | |
| 20260902025116 | 20 | 352 | 0.0 | 0.0 | 0.00 | 2.59 | 2.59 | 96 | |
| 20260902024612 | 20 | 352 | 0.0 | 1.6 | 0.00 | 2.59 | 2.59 | 96 | |
| 20260902024106 | 20 | 353 | 0.0 | 0.0 | 0.00 | 2.59 | 2.59 | 96 | |
| 20260902023602 | 20 | 353 | 0.0 | 0.0 | 0.00 | 2.59 | 2.59 | 96 | |
| 20260902023056 | 20 | 129 | 0.0 | 0.0 | 0.00 | 2.59 | 2.59 | 96 | |
| 20260902022556 | 20 | 129 | 0.0 | 0.0 | 0.00 | 2.59 | 2.59 | 96 | |
| 20260902022052 | 20 | 129 | 0.0 | 0.0 | 0.00 | 2.59 | 2.59 | 96 | |
| 20260902021547 | 20 | 166 | 0.0 | 0.0 | 0.00 | 2.59 | 2.59 | 96 | |
| 20260902021042 | 20 | 166 | 0.0 | 0.0 | 0.00 | 2.59 | 2.59 | 96 | |
| 20260902020538 | 20 | 166 | 0.0 | 1.6 | 0.00 | 2.59 | 2.59 | 96 | |
| 20260902020034 | 20 | 129 | 0.0 | 0.0 | 0.00 | 2.59 | 2.59 | 96 | |
| 20260902015529 | 20 | 129 | 0.0 | 1.6 | 0.00 | 2.59 | 2.59 | 96 | |
| 20260902015025 | 20 | 345 | 0.0 | 0.0 | 0.00 | 2.59 | 2.59 | 96 | |
| 20260902014521 | 20 | 0 | 0.0 | 1.6 | 0.00 | 2.59 | 2.59 | 96 | |
| 20260902014016 | 20 | 0 | 0.0 | 0.0 | 0.00 | 2.59 | 2.59 | 96 | |
| 20260902013511 | 20 | 0 | 0.0 | 0.0 | 0.00 | 2.59 | 2.59 | 96 | |
| 20260902013006 | 21 | 0 | 0.0 | 1.6 | 0.00 | 2.59 | 2.59 | 96 | |
| 20260902012501 | 21 | 212 | 0.0 | 0.0 | 0.00 | 2.59 | 2.59 | 96 | |
| 20260902011957 | 21 | 212 | 0.0 | 0.0 | 0.00 | 2.59 | 2.59 | 96 | |
| 20260902011452 | 21 | 212 | 0.0 | 0.0 | 0.00 | 2.59 | 2.59 | 96 | |
| 20260902010951 | 21 | 212 | 0.0 | 0.0 | 0.00 | 2.59 | 2.59 | 96 | |
| 20260902010447 | 21 | 212 | 0.0 | 0.0 | 0.00 | 2.59 | 2.59 | 96 | |
| 20260902005946 | 21 | 212 | 0.0 | 1.6 | 0.00 | 2.59 | 2.59 | 96 | |
| 20260902005445 | 21 | 142 | 0.0 | 1.6 | 0.00 | 2.59 | 2.59 | 96 | |
| 20260902004942 | 21 | 0 | 0.0 | 1.6 | 0.00 | 2.59 | 2.59 | 96 | |
| 20260902004441 | 21 | 142 | 0.0 | 0.0 | 0.00 | 2.59 | 2.59 | 96 | |
| 20260902003936 | 21 | 164 | 0.0 | 0.0 | 0.00 | 2.59 | 2.59 | 96 | |
| 20260902003436 | 21 | 164 | 0.0 | 1.6 | 0.00 | 2.59 | 2.59 | 96 | |
| 20260902002932 | 21 | 15 | 0.0 | 0.0 | 0.00 | 2.59 | 2.59 | 96 | |
| 20260902002427 | 21 | 15 | 0.0 | 0.0 | 0.00 | 2.59 | 2.59 | 96 | |
| 20260902001926 | 21 | 15 | 0.0 | 0.0 | 0.00 | 2.59 | 2.59 | 96 | |
| 20260902001421 | 22 | 15 | 0.0 | 0.0 | 0.00 | 2.59 | 2.59 | 96 | |
| 20260902000917 | 22 | 15 | 0.0 | 0.0 | 0.00 | 2.59 | 2.59 | 96 | |
| 20260902000414 | 22 | 15 | 0.0 | 0.0 | 0.00 | 2.59 | 2.59 | 96 | |
| 20260901235906 | 22 | 129 | 0.0 | 0.0 | 0.00 | 2.59 | 2.59 | 96 | |
| 20260901235401 | 22 | 129 | 0.0 | 0.0 | 0.00 | 2.59 | 2.59 | 96 | |
| 20260901234856 | 22 | 129 | 0.0 | 0.0 | 0.00 | 2.59 | 2.59 | 96 | |
| 20260901234350 | 22 | 129 | 0.0 | 0.0 | 0.00 | 2.59 | 2.59 | 96 | 1015.2 |
| 20260901233845 | 22 | 129 | 0.0 | 0.0 | 0.00 | 2.59 | 2.59 | 96 | 1015.2 |
| 20260901233341 | 22 | 129 | 0.0 | 0.0 | 0.00 | 2.59 | 2.59 | 96 | 1015.2 |
| 20260901232836 | 22 | 166 | 0.0 | 1.6 | 0.00 | 2.59 | 2.59 | 95 | 1015.2 |
| 20260901232331 | 23 | 205 | 0.0 | 1.6 | 0.00 | 2.59 | 2.59 | 95 | 1015.2 |
| 20260901231827 | 23 | 333 | 0.0 | 0.0 | 0.00 | 2.59 | 2.59 | 94 | 1015.2 |
| 20260901231323 | 23 | 333 | 0.0 | 0.0 | 0.00 | 2.59 | 2.59 | 93 | 1015.2 |
| 20260901230820 | 23 | 214 | 0.0 | 0.0 | 0.00 | 2.59 | 2.59 | 92 | 1015.2 |
| 20260901230319 | 24 | 224 | 0.0 | 1.6 | 0.00 | 2.59 | 2.59 | 91 | 1015.2 |
| 20260901225815 | 24 | 134 | 0.0 | 3.2 | 0.00 | 2.59 | 2.59 | 91 | 1015.2 |
| 20260901225314 | 25 | 89 | 0.0 | 0.0 | 0.00 | 2.59 | 2.59 | 89 | 1015.2 |
| 20260901224809 | 26 | 242 | 0.0 | 0.0 | 0.00 | 2.59 | 2.59 | 87 | 1015.4 |
| 20260901224306 | 26 | 242 | 0.0 | 0.0 | 0.00 | 2.59 | 2.59 | 86 | 1015.2 |
| 20260901223801 | 27 | 293 | 0.0 | 1.6 | 0.00 | 2.59 | 2.59 | 83 | 1015.0 |
| 20260901223256 | 26 | 257 | 0.0 | 1.6 | 0.00 | 2.59 | 2.59 | 83 | 1015.1 |
| 20260901222752 | 26 | 202 | 0.0 | 1.6 | 0.00 | 2.59 | 2.59 | 85 | 1015.1 |
| 20260901222248 | 26 | 246 | 0.0 | 1.6 | 0.00 | 2.59 | 2.59 | 85 | 1015.0 |
| 20260901221744 | 25 | 6 | 0.0 | 3.2 | 0.00 | 2.59 | 2.59 | 87 | 1015.2 |
| 20260901221239 | 25 | 309 | 0.0 | 3.2 | 0.00 | 2.59 | 2.59 | 85 | 1015.0 |
| 20260901220739 | 25 | 315 | 3.2 | 8.0 | 0.00 | 2.59 | 2.59 | 85 | 1015.3 |
| 20260901220233 | 26 | 317 | 3.2 | 4.8 | 0.00 | 2.59 | 2.59 | 85 | 1015.4 |
| 20260901215731 | 26 | 324 | 6.4 | 6.4 | 0.00 | 2.59 | 2.59 | 84 | 1015.2 |
| 20260901215232 | 26 | 293 | 0.0 | 1.6 | 0.00 | 2.59 | 2.59 | 86 | 1015.3 |
| 20260901214730 | 25 | 359 | 3.2 | 4.8 | 0.00 | 2.59 | 2.59 | 87 | 1015.0 |
| 20260901214223 | 25 | 336 | 0.0 | 3.2 | 0.00 | 2.59 | 2.59 | 89 | 1015.2 |
| 20260901213718 | 25 | 326 | 3.2 | 3.2 | 0.00 | 2.59 | 2.59 | 87 | 1015.1 |
| 20260901213213 | 26 | 260 | 0.0 | 6.4 | 0.00 | 2.59 | 2.59 | 84 | 1015.0 |
| 20260901212712 | 26 | 265 | 1.6 | 3.2 | 0.00 | 2.59 | 2.59 | 80 | 1015.0 |
| 20260901212208 | 26 | 232 | 6.4 | 8.0 | 0.00 | 2.59 | 2.59 | 81 | 1015.0 |
| 20260901211708 | 25 | 242 | 0.0 | 3.2 | 0.00 | 2.59 | 2.59 | 86 | 1015.0 |
| 20260901211205 | 25 | 327 | 3.2 | 4.8 | 0.00 | 2.59 | 2.59 | 85 | 1014.9 |
| 20260901210700 | 26 | 315 | 3.2 | 4.8 | 0.00 | 2.59 | 2.59 | 82 | 1014.8 |
| 20260901210156 | 26 | 316 | 4.8 | 6.4 | 0.00 | 2.59 | 2.59 | 83 | 1014.8 |
| 20260901205651 | 26 | 321 | 3.2 | 4.8 | 0.00 | 2.59 | 2.59 | 84 | 1014.8 |
| 20260901205146 | 26 | 299 | 0.0 | 4.8 | 0.00 | 2.59 | 2.59 | 86 | 1014.8 |
| 20260901204641 | 25 | 236 | 8.0 | 8.0 | 0.00 | 2.59 | 2.59 | 86 | 1015.1 |
| 20260901204137 | 25 | 315 | 0.0 | 6.4 | 0.00 | 2.59 | 2.59 | 88 | 1015.1 |
| 20260901203637 | 25 | 304 | 0.0 | 3.2 | 0.00 | 2.59 | 2.59 | 90 | 1015.2 |
| 20260901203132 | 25 | 256 | 3.2 | 4.8 | 0.00 | 2.59 | 2.59 | 89 | 1015.0 |
| 20260901202631 | 25 | 25 | 0.0 | 3.2 | 0.00 | 2.59 | 2.59 | 90 | 1015.0 |
| 20260901202127 | 25 | 129 | 0.0 | 1.6 | 0.00 | 2.59 | 2.59 | 92 | 1015.2 |
| 20260901201623 | 25 | 336 | 0.0 | 0.0 | 0.00 | 2.59 | 2.59 | 92 | 1015.2 |
| 20260901201122 | 25 | 322 | 0.0 | 3.2 | 0.00 | 2.59 | 2.59 | 92 | 1015.4 |
| 20260901200622 | 25 | 326 | 0.0 | 4.8 | 0.00 | 2.59 | 2.59 | 91 | 1015.3 |
| 20260901200117 | 25 | 62 | 0.0 | 1.6 | 0.00 | 2.59 | 2.59 | 92 | 1015.2 |
| 20260901195615 | 25 | 37 | 0.0 | 1.6 | 0.00 | 2.59 | 2.59 | 93 | 1015.1 |
| 20260901195115 | 25 | 314 | 0.0 | 3.2 | 0.00 | 2.59 | 2.59 | 93 | 1015.2 |
| 20260901194610 | 24 | 325 | 0.0 | 3.2 | 0.00 | 2.59 | 2.59 | 94 | 1015.4 |
| 20260901194105 | 24 | 309 | 0.0 | 1.6 | 0.00 | 2.59 | 2.59 | 95 | 1015.1 |
| 20260901193601 | 24 | 313 | 1.6 | 3.2 | 0.00 | 2.59 | 2.59 | 95 | 1015.3 |
| 20260901193055 | 24 | 180 | 0.0 | 0.0 | 0.00 | 2.59 | 2.59 | 92 | 1015.3 |
| 20260901192550 | 25 | 180 | 0.0 | 0.0 | 0.00 | 2.59 | 2.59 | 91 | 1015.4 |
| 20260901192046 | 25 | 180 | 0.0 | 0.0 | 0.00 | 2.59 | 2.59 | 91 | 1015.2 |
| 20260901191542 | 24 | 130 | 0.0 | 1.6 | 0.00 | 2.59 | 2.59 | 91 | 1015.1 |
| 20260901191038 | 25 | 201 | 1.6 | 4.8 | 0.00 | 2.59 | 2.59 | 90 | 1015.1 |
| 20260901190533 | 24 | 255 | 1.6 | 6.4 | 0.00 | 2.59 | 2.59 | 91 | 1015.1 |
| 20260901190032 | 24 | 229 | 4.8 | 4.8 | 0.00 | 2.59 | 2.59 | 91 | 1015.2 |
| 20260901185531 | 24 | 226 | 3.2 | 8.0 | 0.00 | 2.59 | 2.59 | 90 | 1015.2 |
| 20260901185030 | 25 | 255 | 4.8 | 4.8 | 0.00 | 2.59 | 2.59 | 90 | 1015.3 |
| 20260901184525 | 24 | 245 | 9.7 | 11.3 | 0.00 | 2.59 | 2.59 | 90 | 1015.0 |
| 20260901184021 | 24 | 242 | 4.8 | 11.3 | 0.00 | 2.59 | 2.59 | 92 | 1015.3 |
| 20260901183515 | 23 | 238 | 4.8 | 8.0 | 0.00 | 2.59 | 2.59 | 93 | 1015.0 |
| 20260901183011 | 23 | 260 | 4.8 | 4.8 | 0.00 | 2.59 | 2.59 | 96 | 1015.3 |
| 20260901182506 | 23 | 277 | 1.6 | 6.4 | 0.00 | 2.59 | 2.59 | 96 | 1015.0 |
| 20260901182001 | 22 | 235 | 4.8 | 6.4 | 0.00 | 2.59 | 2.59 | 96 | 1015.0 |
| 20260901181500 | 22 | 239 | 3.2 | 6.4 | 0.00 | 2.59 | 2.59 | 96 | 1015.2 |
| 20260901181000 | 22 | 240 | 4.8 | 4.8 | 0.00 | 2.59 | 2.59 | 96 | 1015.0 |
| 20260901180459 | 22 | 254 | 3.2 | 6.4 | 0.00 | 2.59 | 2.59 | 96 | 1014.9 |
| 20260901175957 | 22 | 230 | 0.0 | 1.6 | 0.00 | 2.59 | 2.59 | 96 | 1014.8 |
| 20260901175452 | 22 | 141 | 0.0 | 3.2 | 0.00 | 2.59 | 2.59 | 96 | 1014.9 |
| 20260901174947 | 22 | 247 | 1.6 | 6.4 | 0.00 | 2.59 | 2.59 | 96 | 1014.8 |
| 20260901174443 | 22 | 248 | 3.2 | 6.4 | 0.00 | 2.59 | 2.59 | 96 | 1014.8 |
| 20260901173939 | 22 | 248 | 3.2 | 4.8 | 0.00 | 2.59 | 2.59 | 96 | 1014.9 |
| 20260901173433 | 22 | 67 | 3.2 | 4.8 | 0.00 | 2.59 | 2.59 | 96 | 1014.8 |
| 20260901172930 | 22 | 115 | 1.6 | 3.2 | 0.00 | 2.59 | 2.59 | 96 | 1015.0 |
| 20260901172425 | 22 | 264 | 1.6 | 4.8 | 0.00 | 2.59 | 2.59 | 96 | 1014.9 |
| 20260901171923 | 22 | 93 | 1.6 | 4.8 | 0.00 | 2.59 | 2.59 | 96 | 1014.7 |
| 20260901171422 | 21 | 252 | 3.2 | 4.8 | 0.00 | 2.59 | 2.59 | 96 | 1014.9 |
| 20260901170920 | 21 | 236 | 1.6 | 3.2 | 0.00 | 2.59 | 2.59 | 96 | 1014.9 |
| 20260901170416 | 21 | 146 | 0.0 | 6.4 | 0.00 | 2.59 | 2.59 | 96 | 1014.9 |
| 20260901165915 | 21 | 127 | 1.6 | 3.2 | 0.00 | 2.59 | 2.59 | 96 | 1014.8 |
| 20260901165410 | 21 | 227 | 1.6 | 4.8 | 0.00 | 2.59 | 2.59 | 96 | 1015.1 |
| 20260901164907 | 21 | 102 | 0.0 | 1.6 | 0.00 | 2.59 | 2.59 | 96 | 1015.1 |
| 20260901164407 | 21 | 205 | 0.0 | 3.2 | 0.00 | 2.59 | 2.59 | 96 | 1015.0 |
| 20260901163907 | 21 | 249 | 0.0 | 1.6 | 0.00 | 2.59 | 2.59 | 96 | 1015.1 |
| 20260901163356 | 21 | 129 | 0.0 | 3.2 | 0.00 | 2.59 | 2.59 | 96 | 1015.0 |
| 20260901162851 | 21 | 174 | 0.0 | 3.2 | 0.00 | 2.59 | 2.59 | 96 | 1015.1 |
| 20260901162349 | 21 | 315 | 0.0 | 0.0 | 0.00 | 2.59 | 2.59 | 96 | 1015.3 |
| 20260901161844 | 20 | 153 | 0.0 | 4.8 | 0.00 | 2.59 | 2.59 | 96 | 1015.2 |
| 20260901161338 | 20 | 211 | 1.6 | 3.2 | 0.00 | 2.59 | 2.59 | 96 | 1015.1 |
| 20260901160833 | 20 | 230 | 1.6 | 3.2 | 0.00 | 2.59 | 2.59 | 96 | 1015.1 |
| 20260901160330 | 20 | 230 | 0.0 | 0.0 | 0.00 | 2.59 | 2.59 | 96 | 1015.2 |
| 20260901155829 | 20 | 230 | 0.0 | 0.0 | 0.00 | 2.59 | 2.59 | 96 | 1015.2 |
| 20260901155323 | 20 | 142 | 0.0 | 1.6 | 0.00 | 2.59 | 2.59 | 96 | 1015.2 |
| 20260901154821 | 20 | 119 | 0.0 | 3.2 | 0.00 | 2.59 | 2.59 | 96 | 1015.2 |
| 20260901154319 | 20 | 124 | 0.0 | 1.6 | 0.00 | 2.59 | 2.59 | 96 | 1015.4 |
| 20260901153814 | 21 | 139 | 0.0 | 1.6 | 0.00 | 2.59 | 2.59 | 96 | 1015.4 |
| 20260901153314 | 20 | 142 | 0.0 | 1.6 | 0.00 | 2.59 | 2.59 | 96 | 1015.4 |
| 20260901152813 | 20 | 170 | 0.0 | 1.6 | 0.00 | 2.59 | 2.59 | 96 | 1015.3 |
| 20260901152312 | 20 | 142 | 0.0 | 0.0 | 0.00 | 2.59 | 2.59 | 96 | 1015.1 |
| 20260901151808 | 20 | 142 | 0.0 | 1.6 | 0.00 | 2.59 | 2.59 | 96 | 1015.3 |
| 20260901151302 | 20 | 217 | 0.0 | 1.6 | 0.00 | 2.59 | 2.59 | 96 | 1015.4 |
| 20260901150802 | 20 | 44 | 0.0 | 1.6 | 0.00 | 2.59 | 2.59 | 96 | 1015.3 |
| 20260901150300 | 20 | 157 | 0.0 | 1.6 | 0.00 | 2.59 | 2.59 | 96 | 1015.3 |
| 20260901145757 | 20 | 180 | 0.0 | 3.2 | 0.00 | 2.59 | 2.59 | 96 | 1015.1 |
| 20260901145251 | 20 | 254 | 1.6 | 3.2 | 0.00 | 2.59 | 2.59 | 96 | 1015.2 |
| 20260901144747 | 20 | 182 | 0.0 | 4.8 | 0.00 | 2.59 | 2.59 | 96 | 1015.0 |
| 20260901144243 | 20 | 247 | 3.2 | 4.8 | 0.05 | 2.59 | 2.59 | 96 | 1015.1 |
| 20260901143738 | 20 | 130 | 0.0 | 4.8 | 0.05 | 2.59 | 2.59 | 96 | 1015.1 |
| 20260901143234 | 20 | 175 | 1.6 | 3.2 | 0.05 | 2.59 | 2.59 | 96 | 1015.2 |
| 20260901142731 | 20 | 170 | 0.0 | 3.2 | 0.05 | 2.57 | 2.57 | 96 | 1015.1 |
| 20260901142229 | 20 | 229 | 0.0 | 3.2 | 0.05 | 2.57 | 2.57 | 96 | 1015.1 |
| 20260901141725 | 20 | 228 | 3.2 | 4.8 | 0.00 | 2.57 | 2.57 | 96 | 1014.9 |
| 20260901141225 | 20 | 139 | 0.0 | 4.8 | 0.05 | 2.57 | 2.57 | 96 | 1015.4 |
| 20260901140724 | 20 | 173 | 0.0 | 9.7 | 0.05 | 2.57 | 2.57 | 96 | 1015.3 |
| 20260901140222 | 20 | 131 | 3.2 | 4.8 | 0.71 | 2.54 | 2.54 | 96 | 1015.3 |
| 20260901135718 | 20 | 144 | 0.0 | 4.8 | 0.89 | 2.54 | 2.54 | 96 | 1015.4 |
| 20260901135212 | 20 | 232 | 1.6 | 6.4 | 0.66 | 2.39 | 2.39 | 96 | 1015.3 |
| 20260901134708 | 20 | 127 | 0.0 | 4.8 | 0.53 | 2.39 | 2.39 | 96 | 1015.2 |
| 20260901134203 | 20 | 253 | 1.6 | 4.8 | 0.00 | 2.29 | 2.29 | 96 | 1015.3 |
| 20260901133702 | 20 | 139 | 1.6 | 6.4 | 0.18 | 2.29 | 2.29 | 96 | 1015.2 |
| 20260901133201 | 20 | 158 | 1.6 | 8.0 | 0.84 | 2.29 | 2.29 | 96 | 1015.1 |
| 20260901132701 | 20 | 213 | 4.8 | 4.8 | 1.32 | 2.26 | 2.26 | 96 | 1015.4 |
| 20260901132155 | 20 | 153 | 0.0 | 12.9 | 2.11 | 2.16 | 2.16 | 96 | 1015.9 |
| 20260901131655 | 20 | 161 | 1.6 | 3.2 | 2.03 | 1.98 | 1.98 | 96 | 1015.7 |
| 20260901131155 | 20 | 322 | 0.0 | 1.6 | 1.50 | 1.80 | 1.80 | 96 | 1015.7 |
| 20260901130650 | 20 | 259 | 1.6 | 6.4 | 0.53 | 1.60 | 1.60 | 96 | 1015.7 |
| 20260901130148 | 20 | 264 | 0.0 | 3.2 | 0.05 | 1.52 | 1.52 | 96 | 1015.7 |
| 20260901125647 | 20 | 207 | 0.0 | 3.2 | 0.00 | 1.52 | 1.52 | 96 | 1015.4 |
| 20260901125142 | 20 | 230 | 3.2 | 4.8 | 0.23 | 1.52 | 1.52 | 96 | 1015.4 |
| 20260901124637 | 20 | 218 | 0.0 | 4.8 | 0.79 | 1.50 | 1.50 | 96 | 1015.6 |
| 20260901124137 | 20 | 203 | 0.0 | 4.8 | 0.61 | 1.40 | 1.40 | 96 | 1015.7 |
| 20260901123632 | 20 | 163 | 1.6 | 4.8 | 0.84 | 1.40 | 1.40 | 96 | 1015.8 |